Flight Track Log - Related Links

Times and Time Zones

All times are in EDT time to prevent confusion due to time zone crossing. See the SKW6448 flight status page for this flight to view local times or setup timezone preferences in your user account.

Time Position Orientation Groundspeed Altitude Reporting Facility
EDT Latitude Longitude Course Direction KTS MPH feet Rate Location/Type
Wed 09:45:05 PM 33.9167 -118.4833 97° East 211 243 2,900  Level Southern California TRACON
Wed 09:45:36 PM 33.8836 -118.5092 213° Southwest 236 272 3,900 2,000 Climbing Los Angeles Center
Wed 09:46:00 PM 33.8946 -117.9015 96° East  Level Estimated
Wed 09:46:38 PM 33.8164 -118.5133 183° South 268 308 6,000  Level Los Angeles Center
Wed 09:47:00 PM 33.8782 -117.7327 97° East  Level Estimated
Wed 09:47:39 PM 33.7222 -118.5178 182° South 286 329 9,200  Level Los Angeles Center
Wed 09:48:00 PM 33.8615 -117.5640 97° East  Level Estimated
Wed 09:48:41 PM 33.6736 -118.4436 128° Southeast 303 349 11,300  Level Los Angeles Center
Wed 09:49:00 PM 33.8446 -117.3954 97° East  Level Estimated
Wed 09:49:43 PM 33.6469 -118.3419 107° East 324 373 13,400  Level Los Angeles Center
Wed 09:50:00 PM 33.8275 -117.2269 97° East  Level Estimated
Wed 09:50:44 PM 33.6369 -118.2347 96° East 329 379 15,500  Level Los Angeles Center
Wed 09:51:46 PM 33.6228 -118.1025 97° East 334 384 17,500 1,597 Climbing Los Angeles Center
Wed 09:52:48 PM 33.6089 -117.9767 98° East 366 421 18,800 1,113 Climbing Los Angeles Center
Wed 09:53:50 PM 33.5947 -117.8419 97° East 392 451 19,800 1,122 Climbing Los Angeles Center
Wed 09:54:51 PM 33.5792 -117.6958 97° East 431 496 21,100 1,366 Climbing Los Angeles Center
Wed 09:55:53 PM 33.5628 -117.5464 97° East 448 516 22,600 1,452 Climbing Los Angeles Center
Wed 09:56:55 PM 33.5472 -117.3933 97° East 458 527 24,100 1,366 Climbing Los Angeles Center
Wed 09:57:56 PM 33.5303 -117.2367 97° East 469 540 25,400 1,122 Climbing Los Angeles Center
Wed 09:58:58 PM 33.5131 -117.0717 97° East 491 565 26,400 1,161 Climbing Los Angeles Center
Wed 10:00:00 PM 33.4914 -116.8719 97° East 501 577 27,800 1,317 Climbing Los Angeles Center
Wed 10:01:01 PM 33.4719 -116.7033 98° East 504 580 29,100 1,073 Climbing Los Angeles Center
Wed 10:02:03 PM 33.4517 -116.5325 98° East 510 587 30,000 919 Climbing Los Angeles Center
Wed 10:03:05 PM 33.4308 -116.3594 98° East 518 596 31,000 919 Climbing Los Angeles Center
Wed 10:04:07 PM 33.4100 -116.1828 98° East 530 610 31,900 927 Climbing Los Angeles Center
Wed 10:05:08 PM 33.3886 -116.0064 98° East 534 615 32,900 878 Climbing Los Angeles Center
Wed 10:06:10 PM 33.3667 -115.8303 98° East 534 615 33,700 726 Climbing Los Angeles Center
Wed 10:07:12 PM 33.3436 -115.6542 99° East 534 615 34,400 780 Climbing Los Angeles Center
Wed 10:08:13 PM 33.3225 -115.4786 98° East 534 615 35,300 1,122 Climbing Los Angeles Center
Wed 10:09:15 PM 33.2961 -115.2722 99° East 525 604 36,700 823 Climbing Los Angeles Center
Wed 10:10:17 PM 33.2758 -115.1008 98° East 523 602 37,000 146 Climbing Los Angeles Center
Wed 10:11:18 PM 33.2539 -114.9278 99° East 534 615 37,000  Level Los Angeles Center
Wed 10:12:20 PM 33.2317 -114.7497 98° East 543 625 37,000  Level Los Angeles Center
Wed 10:13:21 PM 33.2058 -114.5697 100° East 547 629 37,000  Level Los Angeles Center
Wed 10:14:23 PM 33.1814 -114.3856 99° East 559 643 37,000  Level Los Angeles Center
Wed 10:15:18 PM 33.1600 -114.2078 98° East 558 642 37,000  Level Albuquerque Center
Wed 10:16:19 PM 33.1353 -114.0261 99° East 558 642 37,000  Level Albuquerque Center
Wed 10:17:21 PM 33.1094 -113.8461 100° East 556 640 37,000  Level Albuquerque Center
Wed 10:18:22 PM 33.0847 -113.6672 99° East 551 634 37,000 -49 Level Albuquerque Center
Wed 10:19:23 PM 33.0592 -113.4878 100° East 550 633 36,900  Descending Albuquerque Center
Wed 10:20:24 PM 33.0333 -113.3075 100° East 550 633 37,000 49 Climbing Albuquerque Center
Wed 10:21:26 PM 33.0078 -113.1283 100° East 549 632 37,000  Level Albuquerque Center
Wed 10:22:27 PM 32.9806 -112.9464 100° East 550 633 37,000  Level Albuquerque Center
Wed 10:23:28 PM 32.9489 -112.7292 100° East 551 634 37,000  Level Albuquerque Center
Wed 10:24:30 PM 32.9219 -112.5497 100° East 551 634 37,000  Level Albuquerque Center
Wed 10:25:31 PM 32.8950 -112.3711 100° East 550 633 37,000  Level Albuquerque Center
Wed 10:26:32 PM 32.8667 -112.1864 100° East 546 628 37,000  Level Albuquerque Center
Wed 10:27:33 PM 32.8406 -112.0103 100° East 545 627 37,000  Level Albuquerque Center
Wed 10:28:35 PM 32.8144 -111.8356 100° East 544 626 37,000  Level Albuquerque Center
Wed 10:29:36 PM 32.7867 -111.6633 101° East 540 621 37,000  Level Albuquerque Center
Wed 10:30:37 PM 32.7597 -111.4922 101° East 535 616 37,000  Level Albuquerque Center
Wed 10:31:38 PM 32.7331 -111.3222 101° East 530 610 37,000  Level Albuquerque Center
Wed 10:32:40 PM 32.7050 -111.1517 101° East 530 610 37,000  Level Albuquerque Center
Wed 10:33:41 PM 32.6772 -110.9814 101° East 529 609 37,000 443 Level Albuquerque Center
Wed 10:34:42 PM 32.6431 -110.7786 101° East 529 609 37,900 836 Climbing Albuquerque Center
Wed 10:35:43 PM 32.6169 -110.6131 101° East 518 596 38,700 537 Climbing Albuquerque Center
Wed 10:36:45 PM 32.5892 -110.4497 101° East 513 590 39,000 146 Climbing Albuquerque Center
Wed 10:37:46 PM 32.5628 -110.2919 101° East 513 590 39,000  Level Albuquerque Center
Wed 10:38:47 PM 32.5344 -110.1250 101° East 514 592 39,000  Level Albuquerque Center
Wed 10:39:48 PM 32.5061 -109.9567 101° East 520 598 39,000  Level Albuquerque Center
Wed 10:40:50 PM 32.4758 -109.7872 102° East 523 602 39,000  Level Albuquerque Center
Wed 10:41:51 PM 32.4389 -109.5833 102° East 528 608 39,000  Level Albuquerque Center
Wed 10:42:52 PM 32.4097 -109.4161 102° East 529 609 39,000  Level Albuquerque Center
Wed 10:43:53 PM 32.3806 -109.2489 102° East 526 605 39,000  Level Albuquerque Center
Wed 10:44:55 PM 32.3500 -109.0814 102° East 526 605 39,000  Level Albuquerque Center
Wed 10:45:56 PM 32.3206 -108.9144 102° East 525 604 39,000  Level Albuquerque Center
Wed 10:46:57 PM 32.2894 -108.7469 102° East 525 604 39,000  Level Albuquerque Center
Wed 10:47:59 PM 32.2592 -108.5792 102° East 525 604 39,000  Level Albuquerque Center
Wed 10:49:00 PM 32.2261 -108.3983 102° East 525 604 39,000  Level Albuquerque Center
Wed 10:50:01 PM 32.1958 -108.2339 102° East 521 600 39,000  Level Albuquerque Center
Wed 10:51:02 PM 32.1650 -108.0697 102° East 518 596 39,000  Level Albuquerque Center
Wed 10:52:04 PM 32.1342 -107.9064 103° East 515 593 39,000 -49 Level Albuquerque Center
Wed 10:53:05 PM 32.0972 -107.7122 103° East 514 592 38,900  Descending Albuquerque Center
Wed 10:54:06 PM 32.0675 -107.5508 102° East 512 589 39,000 49 Climbing Albuquerque Center
Wed 10:55:08 PM 32.0369 -107.3900 103° East 512 589 39,000  Level Albuquerque Center
Wed 10:56:09 PM 32.0047 -107.2289 103° East 511 588 39,000  Level Albuquerque Center
Wed 10:57:10 PM 31.9733 -107.0689 103° East 511 588 39,000  Level Albuquerque Center
Wed 10:58:11 PM 31.9422 -106.9064 103° East 511 588 39,000  Level Albuquerque Center
Wed 10:59:13 PM 31.9103 -106.7456 103° East 511 588 39,000  Level Albuquerque Center
Wed 11:00:14 PM 31.8711 -106.5578 104° East 512 589 39,000  Level Albuquerque Center
Wed 11:01:15 PM 31.8389 -106.3919 103° East 517 595 39,000  Level Albuquerque Center
Wed 11:02:16 PM 31.8078 -106.2283 103° East 517 595 39,000  Level Albuquerque Center
Wed 11:03:18 PM 31.7883 -106.0606 98° East 517 595 39,000 -49 Level Albuquerque Center
Wed 11:04:19 PM 31.7678 -105.8908 98° East 522 601 38,900  Descending Albuquerque Center
Wed 11:05:20 PM 31.7478 -105.7200 98° East 525 604 39,000 49 Climbing Albuquerque Center
Wed 11:06:22 PM 31.7275 -105.5508 98° East 525 604 39,000  Level Albuquerque Center
Wed 11:07:23 PM 31.7058 -105.3822 99° East 523 602 39,000  Level Albuquerque Center
Wed 11:08:24 PM 31.6806 -105.1836 98° East 517 595 39,000  Level Albuquerque Center
Wed 11:09:26 PM 31.6611 -105.0131 98° East 518 596 39,000 -49 Level Albuquerque Center
Wed 11:10:27 PM 31.6392 -104.8453 99° East 518 596 38,900 -49 Descending Albuquerque Center
Wed 11:11:28 PM 31.6181 -104.6764 98° East 520 598 38,900 49 Level Albuquerque Center
Wed 11:12:30 PM 31.5958 -104.5081 99° East 520 598 39,000  Climbing Albuquerque Center
Wed 11:13:31 PM 31.5744 -104.3406 98° East 519 597 38,900  Descending Albuquerque Center
Wed 11:14:32 PM 31.5517 -104.1750 99° East 519 597 39,000 49 Climbing Albuquerque Center
Wed 11:15:34 PM 31.5297 -104.0092 99° East 518 596 39,000  Level Albuquerque Center
Wed 11:16:35 PM 31.5072 -103.8439 99° East 517 595 39,000  Level Albuquerque Center
Wed 11:17:37 PM 31.4842 -103.6694 99° East 516 594 39,000  Level Albuquerque Center
Wed 11:18:38 PM 31.4606 -103.5047 99° East 516 594 39,000  Level Albuquerque Center
Wed 11:19:39 PM 31.4403 -103.3403 98° East 516 594 39,000  Level Albuquerque Center
Wed 11:20:41 PM 31.4156 -103.1419 98° East 515 593 39,000  Level Albuquerque Center
Wed 11:21:42 PM 31.3953 -102.9772 98° East 515 593 39,000  Level Albuquerque Center
Wed 11:22:43 PM 31.3733 -102.8128 99° East 514 592 39,000  Level Albuquerque Center
Wed 11:23:45 PM 31.3525 -102.6492 98° East 514 592 39,000  Level Albuquerque Center
Wed 11:24:46 PM 31.3331 -102.4964 98° East 515 593 39,000  Level Albuquerque Center
Wed 11:25:48 PM 31.3114 -102.3289 99° East 521 600 39,000  Level Albuquerque Center
Wed 11:26:49 PM 31.2847 -102.1331 99° East 515 593 39,000  Level Albuquerque Center
Wed 11:27:21 PM 31.2786 -102.0708 97° East 517 595 39,000  Level Houston Center
Wed 11:28:22 PM 31.2561 -101.9072 99° East 516 594 39,000 -49 Level Houston Center
Wed 11:29:23 PM 31.2292 -101.7097 99° East 515 593 38,900  Descending Houston Center
Wed 11:30:23 PM 31.2069 -101.5433 99° East 515 593 39,000 50 Climbing Houston Center
Wed 11:31:24 PM 31.1831 -101.3786 100° East 516 594 39,000  Level Houston Center
Wed 11:32:25 PM 31.1606 -101.2122 99° East 515 593 39,000  Level Houston Center
Wed 11:33:26 PM 31.1381 -101.0508 99° East 506 582 39,000 -49 Level Houston Center
Wed 11:34:27 PM 31.1164 -100.8900 99° East 503 579 38,900  Descending Houston Center
Wed 11:35:28 PM 31.0928 -100.7300 100° East 503 579 39,000 49 Climbing Houston Center
Wed 11:36:29 PM 31.0689 -100.5703 100° East 502 578 39,000  Level Houston Center
Wed 11:37:30 PM 31.0458 -100.4097 99° East 502 578 39,000  Level Houston Center
Wed 11:38:30 PM 31.0217 -100.2497 100° East 502 578 39,000 -793 Level Houston Center
Wed 11:39:31 PM 30.9975 -100.0886 100° East 502 578 37,400 -1,869 Descending Houston Center
Wed 11:40:32 PM 30.9733 -99.9272 100° East 503 579 35,200 -2,164 Descending Houston Center
Wed 11:41:33 PM 30.9492 -99.7658 100° East 503 579 33,000 -2,164 Descending Houston Center
Wed 11:42:34 PM 30.9233 -99.6036 100° East 504 580 30,800 -2,164 Descending Houston Center
Wed 11:43:35 PM 30.8983 -99.4422 100° East 505 581 28,600 -2,213 Descending Houston Center
Wed 11:44:36 PM 30.8733 -99.2803 100° East 506 582 26,300 -2,231 Descending Houston Center
Wed 11:45:36 PM 30.8478 -99.1214 101° East 505 581 24,100 -2,182 Descending Houston Center
Wed 11:46:37 PM 30.8244 -98.9656 100° East 496 571 21,900 -2,361 Descending Houston Center
Wed 11:47:38 PM 30.7944 -98.7806 101° East 489 563 19,300 -2,508 Descending Houston Center
Wed 11:48:39 PM 30.7792 -98.6286 97° East 480 552 16,800 -2,213 Descending Houston Center
Wed 11:49:40 PM 30.7667 -98.4992 96° East 447 514 14,800 -2,083 Descending Houston Center
Wed 11:50:40 PM 30.7519 -98.3703 98° East 415 478 12,600 -2,231 Descending Houston Center
Wed 11:51:41 PM 30.7389 -98.2478 97° East 391 450 10,300 -1,328 Descending Houston Center
Wed 11:52:42 PM 30.7286 -98.1358 96° East 360 414 9,900 -694 Descending Houston Center
Wed 11:53:42 PM 30.6889 -98.0544 120° Southeast 314 361 8,900 -1,289 Descending Houston Center
Wed 11:54:43 PM 30.6303 -97.9906 137° Southeast 295 339 7,300 -1,525 Descending Houston Center
Wed 11:55:44 PM 30.5747 -97.9275 136° Southeast 287 330 5,800 -1,438 Descending Houston Center
Wed 11:56:44 PM 30.5200 -97.8667 136° Southeast 279 321 4,400 -1,041 Descending Houston Center
Wed 11:57:45 PM 30.4572 -97.7992 137° Southeast 271 312 3,700 -689 Descending Houston Center
Wed 11:59:00 PM 30.4217 -97.6046 124° Southeast  Level FlightAware Approximate

Login

Don't have an account? Register now (free) for customized features, flight alerts, and more!